Flag for U.S.A. Weather past 2 weeks in Providence, Rhode Island, U.S.A.

Now
57 °F

More clouds than sun.


Feels Like: 52 °F
Forecast: 51 / 54 °F
Wind: 23 mph from Northeast

Location: Green State Airport

Current Time: Oct 22, 2014 at 11:26:39 AM

Latest Report: Oct 22, 2014 at 9:51 AM


Visibility: 10 mi

Pressure: 29.95 "Hg

Humidity: 90%

Dew point: 54 °F

Location of ProvidenceLocation

Historic Weather in Providence — Graph

°F

Providence temperature yesterday

Maximum temperature yesterday: 64 °F (at 2:51 PM)
Minimum temperature yesterday: 46 °F (at 12:51 AM)
Average temperature yesterday: 55 °F

Past Weeks' High & Low Weather Summary

 TemperatureHumidityPressure
High79 °F (Oct 15, 12:51 PM)100% (Oct 17, 5:51 AM)30.37 "Hg (Oct 17, 5:51 AM)
Low34 °F (Oct 20, 5:51 AM)33% (Oct 9, 1:51 PM)29.52 "Hg (Oct 18, 3:51 PM)
Average58 °F76%29.98 "Hg
* Reported Oct 7 9:51 AM — Oct 22 9:51 AM, Providence, Weather by CustomWeather, © 2014

Note: Actual official high and low records may vary slightly from our data, if they occured in-between our weather recording intervals... More about our weather records

Advertising

Providence weather history for previous 24 hours

 ConditionsComfort  
Time TempWeatherWind HumidityBarometerVisibility
9:51 AM
Oct 22
57 °FMore clouds than sun.23 mph90%29.95 "Hg10 mi
8:51 AM54 °FLow clouds.13 mph93%29.98 "Hg10 mi
7:51 AM53 °FDrizzle. Low clouds.14 mph89%29.96 "Hg7 mi
6:51 AM52 °FDrizzle. Low clouds.10 mph93%29.95 "Hg9 mi
5:51 AM52 °FLow clouds.13 mph93%29.97 "Hg10 mi
4:51 AM52 °FLow clouds.13 mph93%29.95 "Hg10 mi
3:51 AM53 °FLow clouds.14 mph93%29.94 "Hg9 mi
2:51 AM54 °FLow clouds.13 mph93%29.95 "Hg10 mi
1:51 AM55 °FLow clouds.13 mph93%29.95 "Hg8 mi
12:51 AM56 °FLow clouds.9 mph93%29.96 "Hg10 mi
11:51 PM
Oct 21
56 °FFog.10 mph93%29.96 "Hg6 mi
10:51 PM57 °FFog.12 mph90%29.96 "Hg5 mi
9:51 PM57 °FFog.12 mph93%29.95 "Hg3 mi
8:58 PM57 °FFog.10 mph96%29.93 "Hg4 mi
7:51 PM56 °FPassing clouds.7 mph97%29.91 "Hg10 mi
6:51 PM56 °FScattered clouds.7 mph97%29.90 "Hg10 mi
5:51 PM58 °FScattered clouds.5 mph87%29.90 "Hg10 mi
4:51 PM62 °FPartly sunny.5 mph80%29.89 "Hg10 mi
3:51 PM63 °FBroken clouds.8 mph73%29.89 "Hg10 mi
2:51 PM64 °FBroken clouds.12 mph75%29.89 "Hg10 mi
1:51 PM63 °FLight rain. Partly sunny.12 mph87%29.90 "Hg10 mi
12:51 PM61 °FLight rain. Broken clouds.8 mph87%29.92 "Hg10 mi
11:51 AM61 °FBroken clouds.3 mph83%29.94 "Hg10 mi
Weather by CustomWeather, © 2014

See weather overviewHow to use our weather pages